Regional Weather Roundup
Issued by NWS

Home | Current Version | Previous Version | Graphics & Text | Print | Product List | Glossary On
Versions: 1 2 3 4 5 6 7 8 9 10 11 12 13 14 15 16 17 18 19 20 21 22 23 24 25 26 27 28 29 30 31 32 33 34 35 36 37 38 39 40 41 42 43 44 45 46 47 48 49 50
000
ASUS45 KABQ 050710
RWRNM
NEW MEXICO REGIONAL WEATHER ROUNDUP
NATIONAL WEATHER SERVICE ALBUQUERQUE NM
100 AM MDT THU MAY 05 2016

NOTE: "FAIR" MEANS FEW OR NO CLOUDS BELOW 12,000 FEET AGL WITH NO
       SIGNIFICANT WEATHER OR OBSTRUCTIONS TO VISION.

      THIS PRODUCT IS RELEASED AS TWO VERSIONS.  ONE VERSION NEAR
      THE TOP OF THE HOUR CONTAINING PRELIMINARY DATA FROM ALBUQUERQUE
      AND OTHER STATIONS.  A FINAL VERSION WITH ADDITIONAL DATA IS
      ISSUED ABOUT 10 MINUTES AFTER THE HOUR.

NMZ501-503-504-510>518-050800-
NORTHWEST PLATEAU/NORTHCENTRAL MOUNTAINS

CITY           SKY/WX    TMP DP  RH WIND       PRES   REMARKS
FARMINGTON     FAIR      56  25  30 NE8       30.14S
LOS ALAMOS     FAIR      54 -20   4 SW7       30.32R
SANTA FE       FAIR      55  19  24 E6        30.26S
TAOS           FAIR      43  25  49 N3        30.30
ANGEL FIRE     FAIR      32  28  86 CALM      30.38S

$$
NMZ402-403-502-505>509-050800-
WESTCENTRAL MOUNTAINS/SOUTHWEST MOUNTAINS

CITY           SKY/WX    TMP DP  RH WIND       PRES   REMARKS
GALLUP         FAIR      61  25  25 SE16G23   30.19S
GRANTS         FAIR      47  27  45 SE3       30.26S
SILVER CITY      N/A     57  19  23 NE10      30.19F

$$
NMZ407-409-411-412-050800-
SOUTHERN DESERTS

CITY           SKY/WX    TMP DP  RH WIND       PRES   REMARKS
LORDSBURG      FAIR      63  23  22 S10       30.08S
DEMING         FAIR      65  23  20 E9        30.12S
LAS CRUCES     FAIR      64  18  17 SE6       30.16S
HOLLOMAN AFB   FAIR      56  17  22 NW9       30.13S
ALAMOGORDO     FAIR      63  18  17 W6        30.14F
T OR C         FAIR      59  24  26 N5        30.16S

$$
NMZ519>523-050800-
CENTRAL VALLEYS/CENTRAL HIGHLANDS

CITY           SKY/WX    TMP DP  RH WIND       PRES   REMARKS
ALBUQUERQUE    FAIR      61  21  21 SW6       30.20R
DOUBLE EAGLE   FAIR      46  26  46 SW5       30.23S
MORIARTY ARPT  FAIR      38  19  48 SE3       30.28F
CLINES CORNERS FAIR      51  19  28 S13       30.29S
BELEN          FAIR      56  20  24 SE6       30.19S
SOCORRO        FAIR      58  20  22 S7        30.18S

$$
NMZ524>526-539-540-050800-
SOUTHCENTRAL MOUNTAINS

CITY           SKY/WX    TMP DP  RH WIND       PRES   REMARKS
RUIDOSO          N/A     52  19  28 S3        30.34S

$$
NMZ527>531-050800-
NORTHEAST HIGHLANDS/NORTHEAST PLAINS

CITY           SKY/WX    TMP DP  RH WIND       PRES   REMARKS
LAS VEGAS      FAIR      46  24  42 SW13      30.29R
RATON          FAIR      43  31  62 N6        30.24S
CLAYTON        FAIR      53  36  52 W9        30.18S

$$
NMZ532>537-050800-
EASTCENTRAL PLAINS

CITY           SKY/WX    TMP DP  RH WIND       PRES   REMARKS
TUCUMCARI      FAIR      51  35  54 S5        30.14S
CANNON AFB     CLEAR     57  30  35 SE3       30.18R
CLOVIS AIRPORT FAIR      52  32  46 SW7       30.19S

$$
NMZ028-029-538-050800-
SOUTHEAST PLAINS

CITY           SKY/WX    TMP DP  RH WIND       PRES   REMARKS
ROSWELL        FAIR      59  24  26 W9        30.14S
ARTESIA        FAIR      59  25  27 W10       30.15R
CARLSBAD       FAIR      58  24  27 W9        30.13S
HOBBS          FAIR      55  27  33 CALM      30.17S


$$




USA.gov is the U.S. government's official web portal to all federal, state and local government web resources and services.